When you browse on this site, cookies collect data to enhance your experience and personalize the content and advertising you see.
Visit our Privacy Policy to learn more. By continuing to use the site, you agree to this use of cookies and data.
  • In United Kingdom
  • List of Countries
  • For 7 days
  • Water Temperature
  • Satellite Maps
  • Weather Map
  • Weather Widgets
  • user-avatar
    Login

    Hourly Weather Longjumeau

    Today, 22 May, Wednesday

    Time Temperature Precipitation Wind Pressure Humidity
    00:00 +13°C° 0 mm 3 mps 758 mmHg 81%
    01:00 +13°C° 0 mm 2 mps 758 mmHg 81%
    02:00 +13°C° 0 mm 2 mps 758 mmHg 82%
    03:00 +12°C° 0 mm 1 mps 758 mmHg 82%
    04:00 +13°C° 0 mm 1 mps 758 mmHg 80%
    05:00 +13°C° 0 mm 1 mps 758 mmHg 78%
    06:00 +14°C° 0 mm 1 mps 758 mmHg 74%
    07:00 +14°C° 0 mm 0 mps 758 mmHg 67%
    08:00 +16°C° 0 mm 0 mps 759 mmHg 61%
    09:00 +18°C° 0 mm 0 mps 759 mmHg 54%
    10:00 +19°C° 0 mm 0 mps 759 mmHg 48%
    11:00 +20°C° 0 mm 0 mps 759 mmHg 43%
    12:00 +23°C° 0 mm 1 mps 759 mmHg 38%
    13:00 +23°C° 0 mm 1 mps 759 mmHg 37%
    14:00 +23°C° 0 mm 1 mps 759 mmHg 37%
    15:00 +23°C° 0 mm 1 mps 758 mmHg 37%
    16:00 +23°C° 0 mm 1 mps 758 mmHg 41%
    17:00 +22°C° 0 mm 1 mps 758 mmHg 46%
    18:00 +21°C° 0 mm 1 mps 758 mmHg 50%
    19:00 +20°C° 0 mm 1 mps 758 mmHg 53%
    20:00 +19°C° 0 mm 1 mps 758 mmHg 55%
    21:00 +18°C° 0 mm 1 mps 758 mmHg 58%
    22:00 +16°C° 0 mm 1 mps 758 mmHg 62%
    23:00 +14°C° 0 mm 0 mps 758 mmHg 66%

    Tomorrow, 23 May, Thursday

    Time Temperature Precipitation Wind Pressure Humidity
    00:00 +13°C° 0 mm 0 mps 758 mmHg 69%
    01:00 +13°C° 0 mm 0 mps 758 mmHg 71%
    02:00 +13°C° 0 mm 1 mps 758 mmHg 73%
    03:00 +13°C° 0 mm 1 mps 758 mmHg 75%
    04:00 +14°C° 0 mm 1 mps 758 mmHg 73%
    05:00 +14°C° 0 mm 1 mps 758 mmHg 71%
    06:00 +15°C° 0 mm 1 mps 758 mmHg 69%
    07:00 +16°C° 0 mm 1 mps 758 mmHg 64%
    08:00 +19°C° 0 mm 1 mps 758 mmHg 60%
    09:00 +21°C° 0 mm 1 mps 758 mmHg 55%
    10:00 +22°C° 0 mm 1 mps 758 mmHg 51%
    11:00 +23°C° 0 mm 1 mps 758 mmHg 48%
    12:00 +24°C° 0 mm 1 mps 758 mmHg 44%
    13:00 +24°C° 0 mm 1 mps 757 mmHg 43%
    14:00 +24°C° 0 mm 1 mps 757 mmHg 43%
    15:00 +24°C° 0 mm 1 mps 757 mmHg 42%
    16:00 +24°C° 0 mm 1 mps 756 mmHg 46%
    17:00 +23°C° 0 mm 1 mps 756 mmHg 49%
    18:00 +21°C° 0 mm 2 mps 756 mmHg 53%
    19:00 +21°C° 0 mm 1 mps 756 mmHg 57%
    20:00 +20°C° 0 mm 1 mps 756 mmHg 62%
    21:00 +16°C° 0 mm 0 mps 756 mmHg 66%
    22:00 +16°C° 0 mm 0 mps 756 mmHg 68%
    23:00 +16°C° 0 mm 0 mps 756 mmHg 69%

    Day after tomorrow, 24 May, Friday

    Time Temperature Precipitation Wind Pressure Humidity
    00:00 +15°C° 0 mm 0 mps 756 mmHg 71%
    01:00 +15°C° 0 mm 0 mps 756 mmHg 73%
    02:00 +14°C° 0 mm 0 mps 756 mmHg 75%
    03:00 +15°C° 0 mm 1 mps 755 mmHg 77%
    04:00 +15°C° 0 mm 1 mps 756 mmHg 77%
    05:00 +16°C° 0 mm 1 mps 756 mmHg 77%
    06:00 +16°C° 0 mm 2 mps 756 mmHg 77%
    07:00 +17°C° 0 mm 2 mps 756 mmHg 72%
    08:00 +19°C° 0 mm 2 mps 756 mmHg 67%
    09:00 +20°C° 0 mm 2 mps 756 mmHg 63%
    10:00 +21°C° 0.2 mm 2 mps 756 mmHg 59%
    11:00 +23°C° 0.2 mm 2 mps 756 mmHg 55%
    12:00 +24°C° 0.2 mm 3 mps 755 mmHg 51%
    13:00 +22°C° 0.5 mm 3 mps 755 mmHg 53%
    14:00 +22°C° 0.5 mm 3 mps 755 mmHg 55%
    15:00 +22°C° 0.5 mm 3 mps 755 mmHg 57%
    16:00 +21°C° 0.5 mm 3 mps 755 mmHg 61%
    17:00 +21°C° 0.5 mm 3 mps 755 mmHg 64%
    18:00 +20°C° 0.5 mm 3 mps 755 mmHg 68%
    19:00 +19°C° 0 mm 3 mps 755 mmHg 71%
    20:00 +18°C° 0 mm 3 mps 755 mmHg 75%
    21:00 +16°C° 0 mm 3 mps 756 mmHg 79%
    22:00 +16°C° 0 mm 3 mps 756 mmHg 79%
    23:00 +14°C° 0 mm 3 mps 756 mmHg 80%

    25 May, Saturday

    Time Temperature Precipitation Wind Pressure Humidity
    00:00 +14°C° 0 mm 3 mps 756 mmHg 81%
    01:00 +13°C° 0 mm 3 mps 756 mmHg 81%
    02:00 +12°C° 0 mm 3 mps 756 mmHg 81%
    03:00 +12°C° 0 mm 3 mps 756 mmHg 81%
    04:00 +12°C° 0 mm 3 mps 756 mmHg 79%
    05:00 +13°C° 0 mm 2 mps 756 mmHg 77%
    06:00 +14°C° 0 mm 2 mps 756 mmHg 75%
    07:00 +15°C° 0 mm 2 mps 756 mmHg 68%
    08:00 +17°C° 0 mm 2 mps 756 mmHg 60%
    09:00 +19°C° 0 mm 3 mps 757 mmHg 53%
    10:00 +20°C° 0 mm 3 mps 757 mmHg 50%
    11:00 +21°C° 0 mm 3 mps 757 mmHg 47%
    12:00 +22°C° 0 mm 3 mps 756 mmHg 44%
    13:00 +22°C° 0 mm 3 mps 756 mmHg 44%
    14:00 +24°C° 0 mm 2 mps 756 mmHg 44%
    15:00 +24°C° 0 mm 2 mps 756 mmHg 44%
    16:00 +23°C° 0.1 mm 2 mps 756 mmHg 50%
    17:00 +21°C° 0.1 mm 3 mps 756 mmHg 57%
    18:00 +20°C° 0.1 mm 3 mps 756 mmHg 64%
    19:00 +19°C° 0 mm 3 mps 757 mmHg 68%
    20:00 +18°C° 0 mm 2 mps 757 mmHg 73%
    21:00 +17°C° 0 mm 2 mps 757 mmHg 78%
    22:00 +16°C° 0 mm 2 mps 758 mmHg 81%
    23:00 +16°C° 0 mm 2 mps 758 mmHg 84%

    26 May, Sunday

    Time Temperature Precipitation Wind Pressure Humidity
    00:00 +15°C° 0 mm 2 mps 758 mmHg 86%
    01:00 +14°C° 0 mm 2 mps 757 mmHg 86%
    02:00 +14°C° 0 mm 2 mps 757 mmHg 86%
    03:00 +13°C° 0 mm 2 mps 757 mmHg 86%
    04:00 +14°C° 0 mm 2 mps 757 mmHg 84%
    05:00 +14°C° 0 mm 2 mps 757 mmHg 81%
    06:00 +14°C° 0 mm 1 mps 757 mmHg 79%
    07:00 +16°C° 0 mm 2 mps 757 mmHg 73%
    08:00 +18°C° 0 mm 2 mps 757 mmHg 66%
    09:00 +19°C° 0 mm 2 mps 758 mmHg 60%
    10:00 +20°C° 0 mm 2 mps 757 mmHg 56%
    11:00 +21°C° 0 mm 2 mps 757 mmHg 52%
    12:00 +22°C° 0 mm 3 mps 757 mmHg 48%
    13:00 +24°C° 0 mm 3 mps 757 mmHg 49%
    14:00 +24°C° 0 mm 3 mps 756 mmHg 50%
    15:00 +24°C° 0 mm 3 mps 756 mmHg 50%
    16:00 +22°C° 0 mm 3 mps 756 mmHg 55%
    17:00 +21°C° 0 mm 3 mps 756 mmHg 59%
    18:00 +21°C° 0 mm 3 mps 755 mmHg 63%
    19:00 +20°C° 0 mm 3 mps 755 mmHg 67%
    20:00 +18°C° 0 mm 2 mps 755 mmHg 70%
    21:00 +17°C° 0 mm 2 mps 756 mmHg 73%
    22:00 +17°C° 0 mm 2 mps 755 mmHg 74%
    23:00 +16°C° 0 mm 2 mps 755 mmHg 75%

    27 May, Monday

    Time Temperature Precipitation Wind Pressure Humidity
    00:00 +15°C° 0 mm 2 mps 755 mmHg 76%
    01:00 +15°C° 0 mm 2 mps 754 mmHg 79%
    02:00 +14°C° 0 mm 2 mps 754 mmHg 81%
    03:00 +14°C° 0 mm 2 mps 753 mmHg 83%
    04:00 +14°C° 0 mm 2 mps 753 mmHg 83%
    05:00 +15°C° 0 mm 2 mps 753 mmHg 82%
    06:00 +14°C° 0 mm 3 mps 753 mmHg 82%
    07:00 +14°C° 0.1 mm 3 mps 753 mmHg 83%
    08:00 +14°C° 0.1 mm 3 mps 753 mmHg 84%
    09:00 +16°C° 0.1 mm 3 mps 753 mmHg 85%
    10:00 +15°C° 0.1 mm 4 mps 753 mmHg 81%
    11:00 +15°C° 0.1 mm 4 mps 753 mmHg 76%
    12:00 +15°C° 0.1 mm 4 mps 753 mmHg 72%
    13:00 +17°C° 0 mm 4 mps 753 mmHg 66%
    14:00 +18°C° 0 mm 4 mps 753 mmHg 61%
    15:00 +17°C° 0 mm 5 mps 753 mmHg 56%
    16:00 +17°C° 0 mm 4 mps 753 mmHg 58%
    17:00 +15°C° 0 mm 4 mps 753 mmHg 61%
    18:00 +14°C° 0 mm 4 mps 753 mmHg 64%
    19:00 +14°C° 0 mm 4 mps 753 mmHg 65%
    20:00 +13°C° 0 mm 4 mps 753 mmHg 67%
    21:00 +12°C° 0 mm 3 mps 753 mmHg 69%
    22:00 +12°C° 0 mm 3 mps 753 mmHg 71%
    23:00 +12°C° 0 mm 3 mps 753 mmHg 73%
    Show more